Regional Weather Roundup
Issued by NWS

Home | Current Version | Previous Version | Text Only | Print | Product List | Glossary Off
Versions: 1 2 3 4 5 6 7 8 9 10 11 12 13 14 15 16 17 18 19 20 21 22 23 24 25 26 27 28 29 30 31 32 33 34 35 36 37 38 39 40 41 42 43 44 45 46 47 48 49 50

000
ASUS43 KMPX 031201
RWRMN
WEATHER ROUNDUP FOR MINNESOTA
NATIONAL WEATHER SERVICE TWIN CITIES/CHANHASSEN MN
700 AM CDT FRI JUL 03 2015


NOTE: "FAIR" INDICATES FEW OR NO CLOUDS BELOW 12,000 FEET WITH NO
SIGNIFICANT WEATHER AND/OR OBSTRUCTIONS TO VISIBILITY. N/A MEANS
CURRENT SKY AND/OR WEATHER CONDITIONS ARE NOT AVAILABLE.

MNZ060>063-068>070-031300-
   Twin Cities Metro

CITY           SKY/WX    TMP DP  RH WIND       PRES   REMARKS
TWIN CITIES    MOSUNNY   61  55  81 S3        29.98S
6HR MIN TEMP:  60; 6HR MAX TEMP:  67;

ST PAUL        SUNNY     60  58  92 CALM      29.98S
CRYSTAL        SUNNY     58  55  90 CALM      29.97R
BLAINE         SUNNY     59  57  94 CALM      29.98R
LAKEVILLE      SUNNY     55  54  94 SW5       29.99R
EDEN PRAIRIE   SUNNY     57  54  89 SW3       29.98R
6HR MIN TEMP:  57; 6HR MAX TEMP:  63;

SOUTH ST PAUL  SUNNY     60  56  86 CALM      29.98S
LAKE ELMO      FAIR      57  55  94 CALM      29.99S
$$
MNZ001>005-007-008-013>017-022>024-027-028-031300-
   Northwest Minnesota

CITY           SKY/WX    TMP DP  RH WIND       PRES   REMARKS
BEMIDJI        MOSUNNY   61  57  87 W3        29.93R
HALLOCK        FOG       57  57 100 CALM      29.91R VSB<1/4
ROSEAU         HAZE      63  57  82 CALM      29.90S VSB<1/4
WARROAD        SUNNY     63  57  82 W8        29.90R FOG
THIEF RVR FALL CLOUDY    63  61  94 CALM      29.93R VSB<1/4
CROOKSTON      FOG       59  57  94 CALM      29.94R VSB<1/4
FOSSTON        MOSUNNY   57  55  94 CALM      29.95R FOG
DETROIT LAKES  SUNNY     63  61  94 SW6       29.96R
MOORHEAD       SUNNY     61  61 100 S3        29.94S FOG
PARK RAPIDS    MOSUNNY   60  55  83 W5        29.94R
MAHNOMEN       CLOUDY    58  57  97 SW5       29.94R
$$
MNZ006-009>011-018-025>026-031300-
   North Central Minnesota

CITY           SKY/WX    TMP DP  RH WIND       PRES   REMARKS
BAUDETTE       MOSUNNY   62  60  93 CALM      29.88R FOG
FLAG ISLAND    SUNNY     64  61  88 NW9       29.87R FOG
INTL FALLS     CLOUDY    63  60  90 W6        29.87R FOG
6HR MIN TEMP:  62; 6HR MAX TEMP:  66;

WASKISH        MOSUNNY   66  61  82 SW6       29.90S
BIG FORK       MOSUNNY   63  55  77 W3        29.91R
LONGVILLE      MOSUNNY   63  55  77 W6        29.93S
GRAND RAPIDS   MOSUNNY   63  54  72 W3        29.92S
CRANE LAKE     CLOUDY    63  57  82 CALM      29.88R
ORR            CLOUDY    63  54  72 CALM      29.87R
COOK           CLOUDY    63  55  77 SW8       29.89S
WALKER         PTSUNNY   63  57  81 W6        29.92R
$$
MNZ012-019>021-037-031300-
   Northeast Minnesota

CITY           SKY/WX    TMP DP  RH WIND       PRES   REMARKS
DULUTH         LGT RAIN  64  52  64 W14       29.92R
6HR MIN TEMP:  61; 6HR MAX TEMP:  64; 6HR PCP: TRACE;

ELY            PTSUNNY   61  55  82 SW5       29.88S
HIBBING        PTSUNNY   60  53  77 CALM      29.91R
DULUTH HARBOR  CLOUDY    63  57  82 SW12      29.91S
SILVER BAY     PTSUNNY   61  57  88 CALM      29.87F
GRAND MARAIS     N/A     54  52  93 W7        29.84S
G MARAIS ARPRT MOSUNNY   61  54  77 SW5       29.88S
$$
MNZ029>031-032-039>041-046>048-054>057-064-031300-
   West Central Minnesota

CITY           SKY/WX    TMP DP  RH WIND       PRES   REMARKS
FERGUS FALLS   MOSUNNY   61  59  94 S5        29.97R
WHEATON        SUNNY     57  55  94 S5        29.98S
MORRIS         SUNNY     57  55  94 CALM      29.97S FOG
ALEXANDRIA     SUNNY     58  55  90 SW5       29.99R
ELBOW LAKE     CLOUDY    58  56  94 S3        29.97S
WADENA         SUNNY     59  54  82 W5        29.95S
GLENWOOD       SUNNY     57  54  88 SW6       29.99R
APPLETON       SUNNY     57  55  94 CALM      29.98S FOG
BENSON         SUNNY     55  52  88 CALM      29.99R
ORTONVILLE     SUNNY     61  55  82 W5        29.98R
MADISON          N/A     54  52  94 SW3       29.99R FOG
WILLMAR        FAIR      55  54  94 CALM      30.01R
$$
MNZ033>034-036-042>043-049>051-058-059-031300-
   Central Minnesota

CITY           SKY/WX    TMP DP  RH WIND       PRES   REMARKS
ST CLOUD       SUNNY     54  52  93 CALM      29.97S
6HR MIN TEMP:  50; 6HR MAX TEMP:  57;

SAUK CENTRE    FAIR      55  53  92 CALM      29.99R
PAYNESVILLE    SUNNY     50  50 100 SW5       29.99R
AITKIN         MOSUNNY   63  54  72 SW5       29.93F
PINE RIVER       N/A     61  54  77 SW3       29.97S
BRAINERD       CLOUDY    57  53  86 S6        29.95S
STAPLES        PTSUNNY   61  54  77 SW5       29.95S
LONG PRAIRIE   FAIR      55  52  88 S5        29.98R
LITTLE FALLS   SUNNY     54  52  94 CALM      29.97R
LITCHFIELD     SUNNY     59  55  88 W3        30.00S
BUFFALO        SUNNY     58  53  84 CALM      29.99S
MAPLE LAKE     SUNNY     57  55  92 CALM      29.99S
$$
MNZ037-044-045-052-053-031300-
   East Central Minnesota

CITY           SKY/WX    TMP DP  RH WIND       PRES   REMARKS
PRINCETON      SUNNY     55  54  94 CALM      29.97S
MORA           SUNNY     55  52  88 CALM      29.98S
CAMBRIDGE      SUNNY     61  52  72 CALM      29.96S
RUSH CITY      SUNNY     58  54  85 CALM      29.97F
MOOSE LAKE     MOSUNNY   54  52  94 SW3       29.93S FOG
HINCKLEY       FAIR      55  55 100 CALM      29.96R
CLOQUET        CLOUDY    63  52  67 W9        29.94R
MCGREGOR       PTSUNNY   61  54  77 SW5       29.94F
$$
MNZ071>073-080-081-089-090-097-098-031300-
   Southwest Minnesota

CITY           SKY/WX    TMP DP  RH WIND       PRES   REMARKS
MONTEVIDEO     SUNNY     55  52  88 MISG      30.00S
GRANITE FALLS  SUNNY     53  51  95 CALM      30.01S
CANBY          SUNNY     59  56  91 SW5       30.01R FOG
MARSHALL       SUNNY     55  50  82 W5        29.99S
REDWOOD FALLS  SUNNY     55  52  89 CALM      30.00R
OLIVIA         SUNNY     52  50  93 CALM      29.99S
PIPESTONE      SUNNY     54  54 100 CALM      30.02S FOG
WINDOM         SUNNY     54  52  94 CALM      30.02R
WORTHINGTON    SUNNY     54  50  87 W5        30.02S
JACKSON        SUNNY     54  52  94 W3        30.02S FOG
TRACY          SUNNY     57  54  90 SW6       30.01S
SLAYTON        SUNNY     54  54  99 CALM      30.03R FOG
$$
MNZ065>067-074>077-082>085-091>093-031300-
   South Central Minnesota

CITY           SKY/WX    TMP DP  RH WIND       PRES   REMARKS
MANKATO        SUNNY     57  52  82 SW5       30.00S
NEW ULM        SUNNY     52  52 100 CALM      30.00R
ST JAMES       SUNNY     55  52  88 SW5       30.02R
FAIRMONT       SUNNY     54  46  76 CALM      30.01R
GLENCOE        SUNNY     56  53  90 CALM      30.00R
FARIBAULT      SUNNY     55  54  94 CALM      30.00R
OWATONNA       SUNNY     57  54  88 CALM      30.01R
WASECA         SUNNY     52  50  93 CALM      30.02R
ALBERT LEA     SUNNY     57  54  88 CALM      30.01S
$$
MNZ078>079-086>088-094>096-031300-
   Southeast Minnesota

CITY           SKY/WX    TMP DP  RH WIND       PRES   REMARKS
ROCHESTER      SUNNY     57  54  89 SW5       30.01R
6HR MIN TEMP:  53; 6HR MAX TEMP:  59;

RED WING       SUNNY     55  55 100 CALM      29.98R
DODGE CENTER   SUNNY     55  54  94 W3        30.01R
WINONA         SUNNY     55  55 100 CALM      30.00R
AUSTIN         SUNNY     55  54  94 CALM      30.01S FOG
PRESTON        SUNNY     55  52  88 SW3       30.02R
$$
ABBREVIATIONS USED IN REMARKS
   TC - TEMPERATURES IN CELSIUS
  WCI - WIND CHILL INDEX
   HX - HEAT INDEX
  VSB - VISIBILITY
$$


USA.gov is the U.S. government's official web portal to all federal, state and local government web resources and services.